This is the latest recevied weather packets stored in our database for station/object OE5RBO. If no packets are shown the sender has not sent any weather packets the latest 10 day(s).
| Time | Temp. | Humidity | Pressure | Rain* | Wind** | Luminosity | Snow |
|---|---|---|---|---|---|---|---|
| 1777902476 | 26.67° C | 45% | 1010.1 hPa | 0 mm | - | - | - |
| 1777901876 | 26.67° C | 44% | 1010.2 hPa | 0 mm | - | - | - |
| 1777901276 | 26.67° C | 46% | 1010.4 hPa | 0 mm | - | - | - |
| 1777900675 | 26.11° C | 48% | 1010.6 hPa | 0 mm | - | - | - |
| 1777900075 | 26.11° C | 50% | 1010.8 hPa | 0 mm | - | - | - |
| 1777898274 | 26.67° C | 45% | 1011.1 hPa | 0 mm | - | - | - |
| 1777897673 | 27.22° C | 45% | 1011.3 hPa | 0 mm | - | - | - |
| 1777897073 | 26.67° C | 47% | 1011.4 hPa | 0 mm | - | - | - |
| 1777895872 | 25.56° C | 47% | 1011.8 hPa | 0 mm | - | - | - |
| 1777895272 | 26.11° C | 46% | 1011.9 hPa | 0 mm | - | - | - |
| 1777894672 | 26.11° C | 46% | 1012.2 hPa | 0 mm | - | - | - |
| 1777894071 | 26.11° C | 49% | 1012.4 hPa | 0 mm | - | - | - |
| 1777893471 | 26.67° C | 45% | 1012.6 hPa | 0 mm | - | - | - |
| 1777892871 | 26.11° C | 46% | 1012.8 hPa | 0 mm | - | - | - |
| 1777892270 | 25° C | 49% | 1012.9 hPa | 0 mm | - | - | - |
| 1777891670 | 23.89° C | 51% | 1013 hPa | 0 mm | - | - | - |
| 1777891069 | 23.89° C | 50% | 1013.3 hPa | 0 mm | - | - | - |
| 1777890469 | 23.33° C | 53% | 1013.4 hPa | 0 mm | - | - | - |
| 1777889869 | 23.33° C | 52% | 1013.5 hPa | 0 mm | - | - | - |
| 1777889268 | 23.33° C | 51% | 1013.6 hPa | 0 mm | - | - | - |
| 1777888668 | 25° C | 49% | 1013.7 hPa | 0 mm | - | - | - |
| 1777887467 | 23.33° C | 51% | 1013.9 hPa | 0 mm | - | - | - |
| 1777886867 | 22.22° C | 55% | 1014.2 hPa | 0 mm | - | - | - |
| 1777886266 | 23.89° C | 50% | 1014.2 hPa | 0 mm | - | - | - |
| 1777885666 | 23.89° C | 52% | 1014.4 hPa | 0 mm | - | - | - |
* Rain since midnight (hover to see other rain measurements)
** Current wind speed in m/s (hover to see current wind gust speed)